Wind_Speed
19 21 22 22 20 18 16 19 16 15 13 13 12 11 11 11 10 9 9 9 9 9 9 9 8 8 8 8 8 9 10 10 9 8 7 6 6 5 4 4 3 3 2 2 2 3 3 3 3
18 22 23 24 22 16 18 22 19 17 14 13 12 12 11 11 10 10 9 9 9 9 9 9 9 8 8 9 9 10 10 10 9 8 7 6 6 5 5 4 4 4 3 3 3 3 3 4 4
19 21 24 26 26 21 18 25 22 19 15 14 12 11 11 11 11 10 9 8 8 9 9 9 9 8 9 9 9 10 10 10 9 8 7 7 6 6 5 5 5 4 4 3 3 4 4 4 5
21 22 24 26 27 27 28 27 24 21 18 15 13 11 10 10 9 8 8 7 8 8 9 9 9 9 9 10 10 10 10 10 9 8 8 7 7 6 5 5 4 4 3 3 4 4 4 5 5
25 24 24 26 27 29 32 30 26 24 21 18 14 12 11 9 9 8 7 7 7 7 8 9 9 10 10 10 10 10 11 10 9 9 8 8 7 6 5 4 4 3 3 3 3 4 5 5 6
29 26 24 24 27 31 33 31 29 26 22 19 16 14 12 10 10 9 7 6 6 7 8 9 9 10 11 11 11 11 11 10 10 9 8 8 7 6 5 4 3 2 2 2 3 5 6 6 7
32 29 25 24 27 30 34 33 31 28 25 22 19 16 13 12 11 10 8 6 6 7 8 9 10 10 11 11 11 11 11 10 10 10 9 7 6 5 4 3 2 2 2 3 5 6 7 7 8
35 32 27 26 27 30 35 36 33 31 28 25 20 17 15 13 11 10 9 7 6 7 8 9 10 11 12 12 12 12 11 11 10 9 8 7 6 5 4 3 3 3 4 5 6 7 8 9 9
38 36 30 28 29 30 36 38 35 33 30 25 22 19 16 13 12 10 8 8 7 8 8 10 11 12 12 13 12 12 12 11 10 9 9 7 6 5 5 4 4 4 5 6 7 8 9 10 10
39 38 33 33 31 31 35 38 38 35 32 28 24 21 18 15 13 12 10 8 8 8 9 10 11 12 12 12 13 12 12 11 10 10 9 8 7 6 6 6 5 6 6 7 8 9 10 11 11
40 39 37 35 31 31 33 36 38 37 35 30 27 24 20 16 14 13 10 9 8 8 10 11 12 12 12 12 12 12 12 11 11 10 10 9 8 8 8 8 8 8 8 9 10 11 11 12 12
39 39 38 36 34 32 32 34 36 37 36 34 31 26 21 17 15 14 12 9 9 9 10 12 12 12 12 12 12 12 12 12 12 11 11 10 10 10 10 10 10 11 11 11 12 12 12 12 13
37 39 38 37 34 33 31 31 32 35 36 36 32 27 22 20 17 15 13 11 10 10 11 12 12 13 13 13 13 13 13 13 13 13 13 13 12 12 13 13 13 13 14 14 14 14 14 14 14
34 37 37 36 33 32 31 30 30 32 35 36 33 29 25 22 19 17 14 13 12 12 13 13 13 14 14 14 14 14 15 15 15 15 15 15 15 15 15 16 16 16 16 16 17 17 17 17 16
30 33 34 34 32 31 30 30 30 31 35 35 33 30 28 25 22 19 17 15 15 14 15 15 15 16 16 16 15 15 16 16 16 16 16 17 17 18 19 19 20 20 20 20 20 20 20 20 21
27 28 30 32 32 31 30 28 30 31 33 35 34 31 29 27 24 22 19 17 17 16 16 16 17 17 18 17 17 17 17 17 17 18 18 19 20 21 23 24 24 25 24 23 23 24 24 24 24
26 26 28 31 31 30 29 28 28 29 32 34 34 32 30 28 26 23 20 19 18 18 19 18 19 19 19 19 19 19 19 19 20 20 21 22 24 25 26 28 29 28 28 27 27 27 27 26 26
25 26 27 29 31 30 29 28 27 27 30 33 34 33 31 29 28 25 22 21 20 20 20 20 21 22 22 21 22 22 23 22 23 23 25 26 27 29 30 31 31 30 30 30 30 29 28 29 29
26 26 26 28 29 28 28 26 26 26 29 32 34 33 32 32 30 28 24 23 22 22 22 23 24 24 25 25 25 27 27 27 27 27 29 30 31 32 33 34 34 33 33 32 31 31 31 31 31
25 25 25 26 28 27 26 26 25 26 29 31 33 33 33 33 31 29 27 25 25 25 25 25 26 27 27 28 29 31 30 30 30 31 31 32 34 35 37 37 37 36 35 35 33 32 30 30 29
24 24 25 26 26 26 25 25 25 26 28 30 32 34 34 33 32 31 29 28 28 27 27 28 28 29 30 30 32 31 32 33 33 33 34 35 35 37 38 38 37 34 33 32 33 32 31 31 30
22 23 25 26 24 22 24 20 25 26 27 29 31 33 34 33 33 32 32 31 31 30 30 29 29 31 32 31 32 34 35 36 36 37 38 38 38 39 37 36 34 32 30 29 29 28 30 30 30
22 23 25 26 25 24 23 20 23 25 26 28 30 31 33 34 35 35 35 34 34 33 32 31 31 32 33 34 34 34 36 36 38 40 40 41 41 40 37 35 34 32 31 30 30 30 30 32 33
22 23 24 25 23 22 23 21 22 23 24 25 26 28 30 32 35 36 37 36 35 34 34 33 34 34 35 36 36 35 36 37 38 40 40 41 41 40 37 36 36 34 34 33 33 34 34 35 36
21 22 20 20 21 20 24 24 24 22 22 22 23 25 26 28 30 32 34 35 35 35 35 35 35 35 36 36 36 36 38 40 41 41 41 42 41 40 40 39 37 37 37 37 37 37 37 38 38
20 21 18 15 18 20 24 25 24 21 21 21 21 22 23 24 26 28 31 32 33 34 35 35 35 35 36 36 37 37 39 40 41 41 43 42 42 43 42 41 41 39 39 40 41 41 41 42 42
20 21 21 19 18 18 23 25 23 21 21 21 21 22 23 23 24 25 27 29 31 32 33 34 35 36 36 38 38 39 41 42 44 45 45 44 45 45 45 44 44 43 42 43 43 43 44 45 46
19 20 21 19 15 16 21 24 24 23 22 22 22 23 24 24 25 27 28 29 31 33 34 35 36 37 38 40 42 43 44 45 45 46 46 46 47 46 46 45 45 45 45 45 46 48 48 49 50
18 19 20 18 17 15 18 23 22 22 23 24 24 25 26 26 28 29 30 32 33 35 36 37 38 40 41 43 43 44 45 45 46 46 47 47 47 47 46 46 46 47 48 48 48 48 49 51 51
18 19 19 17 18 19 17 21 21 22 23 24 25 26 27 29 30 32 33 35 36 37 38 39 41 41 42 43 44 45 46 46 46 47 47 47 47 47 47 47 48 48 49 49 49 50 51 52 52
Wind_Direction
223 216 214 213 212 214 219 229 227 228 226 227 229 230 229 228 227 231 249 250 246 241 236 232 227 224 224 226 229 231 231 231 228 225 222 219 221 224 226 228 230 236 240 244 250 254 256 257 259
230 221 216 214 212 214 227 230 227 227 228 229 230 232 232 231 233 236 247 249 248 245 238 230 225 221 219 221 225 226 226 225 225 224 221 220 221 223 224 227 231 231 234 243 250 257 262 263 266
235 227 220 216 215 211 223 230 230 231 231 232 232 237 242 240 242 244 251 250 249 243 236 228 220 214 212 216 219 221 220 220 219 218 218 218 218 220 222 224 225 228 237 247 256 264 267 270 276
236 231 225 221 220 218 223 231 232 233 232 231 232 240 248 249 248 252 252 247 247 239 230 221 214 209 209 210 214 216 216 214 214 214 215 215 214 214 216 220 226 233 242 254 264 271 277 282 285
235 233 228 224 220 223 227 230 231 234 234 234 234 241 250 253 258 261 258 246 243 235 223 212 208 206 207 208 209 212 211 210 210 209 209 209 208 210 213 217 223 232 246 258 269 282 290 295 294
235 235 232 228 224 226 228 230 230 232 233 234 234 239 248 257 263 268 262 248 238 230 219 209 203 203 205 206 207 207 205 204 204 202 202 203 205 208 211 215 223 239 252 266 282 291 296 299 298
235 236 234 231 226 226 227 229 228 229 230 233 236 242 249 257 263 265 261 248 239 230 220 209 204 204 204 204 204 203 201 198 199 199 200 203 208 212 216 219 227 249 268 285 293 296 297 297 298
235 235 233 231 228 223 227 228 228 229 230 233 235 241 250 257 261 260 257 247 237 225 217 209 204 203 202 202 202 201 199 198 200 203 205 208 214 221 226 232 245 261 279 292 298 301 302 300 299
234 234 231 232 231 224 226 227 228 231 233 232 233 238 246 253 257 257 258 251 235 221 212 205 202 201 201 200 200 201 202 204 207 210 214 218 226 234 241 251 264 277 289 297 301 303 303 303 304
233 233 231 231 231 225 227 226 228 229 230 230 231 234 239 247 253 254 256 252 238 222 211 205 202 201 200 200 202 205 208 212 216 220 225 228 234 242 250 260 272 282 289 295 299 302 304 304 304
232 232 230 231 231 227 227 226 228 230 229 227 228 231 234 241 248 254 256 253 244 226 213 205 202 201 202 204 208 212 216 220 223 227 233 236 241 249 257 264 272 278 285 292 295 298 300 302 302
231 231 230 230 229 227 228 228 229 231 230 228 228 228 229 236 245 253 255 252 241 224 213 209 207 206 206 210 215 220 224 227 230 233 239 243 248 257 262 268 272 276 280 285 289 293 294 296 298
230 229 229 229 229 229 230 231 232 233 230 229 228 225 226 233 242 252 250 248 239 227 216 212 211 211 212 216 221 226 230 233 237 240 246 249 253 258 263 266 270 273 277 280 281 284 287 290 292
230 228 228 229 230 230 232 232 233 233 231 230 229 227 226 230 238 244 246 244 237 228 221 217 215 216 218 221 225 230 235 238 242 245 249 253 257 260 262 265 268 271 274 274 276 278 279 281 283
230 228 227 227 227 228 231 232 233 231 230 230 228 226 226 229 235 240 243 243 238 230 222 218 217 218 222 226 229 234 239 242 246 249 252 255 259 261 262 265 265 266 269 271 273 274 274 276 277
227 225 224 224 223 225 228 230 233 232 231 229 228 224 224 227 232 235 239 243 240 233 226 222 220 221 224 229 232 236 239 243 247 250 254 256 260 262 263 266 267 265 266 268 269 270 273 274 274
223 220 220 222 221 223 224 227 233 232 230 228 226 224 224 226 230 234 237 243 241 233 228 228 225 225 228 233 236 238 241 244 247 250 254 257 260 263 263 266 266 265 266 269 270 270 271 273 273
220 217 217 219 218 220 222 226 231 229 226 225 224 223 222 223 227 230 235 242 242 237 233 232 230 229 233 238 240 242 243 245 249 252 255 257 260 263 264 268 267 266 269 270 269 268 268 272 274
217 214 213 216 216 218 220 223 225 224 222 223 222 222 220 222 227 230 236 241 242 239 238 236 235 235 235 239 242 244 245 247 250 255 259 261 263 266 265 266 269 269 271 271 271 269 267 269 271
214 211 211 214 215 215 217 220 221 222 221 221 220 222 224 225 231 235 238 244 244 244 242 241 239 239 241 241 242 245 248 251 252 255 262 266 268 268 268 268 271 271 272 273 272 268 269 269 270
211 209 207 210 212 213 217 220 220 221 222 223 224 225 226 227 231 235 239 243 245 247 248 247 246 244 245 246 244 247 251 255 256 259 262 266 270 274 275 274 275 277 278 279 275 273 273 273 273
209 207 206 206 206 212 212 217 222 223 224 224 226 228 231 232 234 236 240 243 246 248 250 251 253 252 249 251 252 251 254 258 261 264 267 269 272 275 279 281 281 281 283 287 283 282 280 280 279
205 204 204 204 206 210 211 210 227 225 227 227 228 230 233 236 238 238 240 243 245 248 250 250 254 257 256 257 259 258 259 261 264 266 270 272 275 279 283 283 284 286 287 290 288 288 284 282 283
203 202 203 204 207 212 212 212 226 226 229 230 230 232 235 237 238 239 240 242 243 245 249 250 253 257 257 260 262 263 262 264 268 271 276 279 281 282 286 289 290 290 289 290 290 288 286 285 285
199 195 197 202 206 213 216 215 224 227 229 230 231 231 233 236 236 235 236 238 240 244 248 252 254 258 260 262 263 265 267 269 271 276 279 284 285 287 291 291 291 291 291 289 288 286 284 285 284
197 192 186 201 209 217 218 220 224 228 229 230 231 232 233 235 233 233 234 237 241 244 248 251 255 259 262 265 269 272 275 279 280 280 284 286 288 292 292 292 292 291 289 287 284 282 282 283 283
194 194 196 196 203 214 222 225 227 228 230 230 231 233 236 239 239 239 240 242 246 249 254 258 262 265 268 272 276 279 280 282 284 286 287 287 289 290 289 291 291 289 287 285 284 282 282 282 283
194 198 202 200 210 222 230 231 232 230 231 232 233 236 240 242 244 246 248 250 253 257 260 264 267 269 272 274 277 279 282 284 286 287 286 286 287 288 288 288 287 284 283 283 283 282 281 281 282
197 201 204 205 208 219 236 236 234 235 234 235 237 240 243 245 247 249 252 255 258 261 265 268 271 273 275 277 278 280 282 283 284 284 284 284 284 284 284 284 283 282 282 282 282 281 282 283 283
200 205 209 212 225 221 233 241 239 243 245 245 245 246 248 250 253 255 257 259 261 264 266 269 271 273 275 276 277 279 280 281 281 281 282 282 283 284 284 282 281 280 280 281 282 282 283 283 284
Height
5889 5891 5893 5896 5899 5901 5903 5901 5901 5902 5903 5903 5904 5904 5904 5905 5906 5907 5904 5902 5902 5902 5903 5903 5904 5904 5905 5905 5906 5906 5907 5907 5907 5907 5907 5907 5907 5907 5907 5907 5907 5907 5907 5907 5907 5907 5907 5906 5906
5886 5888 5891 5893 5896 5900 5900 5898 5899 5900 5901 5902 5902 5903 5903 5902 5902 5902 5901 5900 5900 5900 5900 5901 5901 5902 5903 5903 5904 5905 5905 5906 5906 5906 5906 5906 5906 5906 5906 5906 5906 5906 5906 5906 5906 5905 5905 5905 5904
5883 5884 5888 5890 5893 5897 5896 5895 5896 5898 5899 5900 5901 5901 5901 5901 5900 5900 5899 5898 5898 5898 5898 5898 5899 5900 5901 5902 5903 5903 5904 5904 5904 5904 5904 5904 5904 5904 5905 5905 5905 5905 5905 5905 5904 5904 5904 5903 5903
5879 5881 5884 5887 5889 5891 5891 5891 5893 5895 5897 5898 5899 5899 5899 5899 5898 5898 5897 5896 5896 5895 5895 5896 5896 5898 5898 5900 5901 5902 5902 5903 5903 5903 5903 5903 5903 5903 5904 5904 5904 5904 5904 5904 5903 5903 5902 5902 5901
5874 5877 5880 5882 5885 5886 5886 5887 5890 5892 5894 5896 5897 5897 5897 5897 5896 5896 5895 5894 5894 5893 5893 5893 5894 5896 5897 5898 5899 5900 5901 5902 5902 5902 5902 5902 5902 5902 5903 5903 5903 5903 5903 5903 5902 5902 5901 5901 5900
5869 5873 5876 5878 5881 5882 5882 5884 5886 5889 5891 5893 5894 5895 5895 5895 5895 5894 5893 5893 5892 5892 5892 5892 5892 5894 5895 5896 5898 5899 5899 5900 5901 5901 5901 5901 5901 5902 5902 5902 5903 5903 5902 5902 5901 5901 5900 5899 5899
5865 5868 5871 5874 5876 5878 5878 5879 5882 5885 5888 5890 5892 5893 5893 5893 5893 5893 5892 5891 5891 5891 5890 5890 5891 5892 5893 5895 5896 5897 5898 5899 5899 5900 5900 5900 5900 5901 5901 5902 5902 5902 5902 5901 5901 5900 5899 5898 5897
5858 5862 5865 5868 5871 5874 5874 5874 5877 5880 5883 5886 5889 5891 5891 5892 5892 5891 5890 5890 5889 5889 5889 5889 5890 5891 5892 5893 5895 5896 5897 5897 5898 5899 5899 5899 5899 5900 5900 5901 5901 5901 5901 5900 5899 5899 5898 5897 5896
5850 5856 5860 5863 5865 5868 5868 5870 5873 5876 5879 5883 5886 5888 5889 5890 5890 5890 5889 5888 5888 5888 5888 5888 5889 5890 5891 5892 5893 5894 5895 5896 5897 5898 5898 5898 5898 5899 5899 5900 5900 5900 5900 5899 5898 5897 5896 5895 5894
5843 5849 5854 5856 5858 5861 5862 5865 5867 5871 5875 5879 5883 5884 5886 5888 5888 5888 5888 5887 5887 5887 5887 5887 5888 5889 5890 5891 5892 5893 5894 5895 5895 5896 5897 5897 5897 5898 5898 5898 5898 5898 5898 5897 5897 5896 5894 5893 5893
5836 5842 5846 5848 5851 5854 5856 5859 5862 5866 5870 5875 5878 5881 5883 5885 5886 5887 5886 5886 5885 5885 5886 5886 5887 5888 5889 5890 5891 5892 5893 5893 5894 5895 5895 5896 5896 5896 5896 5896 5897 5896 5896 5895 5895 5894 5893 5892 5890
5829 5834 5837 5841 5844 5848 5851 5854 5857 5861 5866 5870 5873 5877 5881 5883 5884 5885 5885 5885 5884 5884 5885 5885 5886 5887 5888 5889 5890 5891 5891 5892 5893 5893 5894 5894 5894 5895 5895 5895 5894 5894 5894 5893 5893 5892 5890 5889 5888
5822 5826 5830 5835 5839 5843 5846 5850 5853 5856 5862 5865 5869 5874 5877 5880 5882 5883 5883 5883 5883 5883 5883 5884 5884 5886 5886 5887 5888 5889 5890 5890 5891 5891 5892 5892 5892 5893 5893 5892 5892 5892 5891 5891 5890 5889 5888 5886 5885
5816 5820 5825 5830 5834 5838 5842 5846 5849 5853 5857 5861 5865 5870 5874 5877 5879 5880 5881 5881 5881 5881 5881 5882 5883 5883 5884 5885 5886 5887 5887 5888 5889 5889 5890 5890 5890 5890 5890 5890 5889 5889 5888 5888 5887 5886 5885 5883 5882
5811 5816 5820 5824 5828 5833 5837 5841 5845 5848 5851 5856 5860 5865 5869 5873 5875 5877 5878 5878 5879 5879 5879 5880 5880 5881 5882 5883 5884 5884 5885 5886 5886 5887 5887 5887 5887 5887 5887 5886 5886 5885 5885 5884 5883 5882 5881 5880 5878
5806 5810 5815 5818 5823 5827 5834 5838 5839 5842 5846 5851 5855 5860 5864 5868 5871 5873 5874 5875 5876 5876 5877 5878 5878 5879 5880 5880 5881 5882 5883 5883 5884 5884 5884 5884 5884 5883 5882 5882 5881 5880 5879 5878 5878 5877 5876 5875 5873
5801 5805 5809 5813 5817 5822 5828 5832 5834 5837 5842 5846 5850 5855 5859 5864 5867 5869 5870 5872 5873 5874 5874 5875 5875 5876 5877 5878 5879 5879 5880 5880 5880 5880 5880 5880 5879 5878 5877 5876 5875 5874 5874 5872 5871 5870 5870 5869 5867
5796 5800 5804 5808 5812 5818 5822 5826 5829 5833 5837 5841 5846 5850 5854 5859 5862 5864 5866 5868 5869 5871 5871 5872 5873 5873 5874 5875 5875 5876 5876 5876 5876 5876 5876 5875 5874 5873 5871 5870 5868 5868 5867 5866 5864 5863 5862 5861 5860
5791 5795 5799 5803 5808 5813 5817 5821 5825 5829 5833 5837 5841 5845 5849 5853 5856 5859 5862 5864 5866 5867 5868 5869 5869 5870 5871 5871 5871 5871 5871 5871 5871 5871 5870 5869 5868 5866 5864 5863 5863 5861 5860 5859 5857 5855 5855 5854 5853
5787 5792 5796 5800 5804 5809 5813 5817 5821 5825 5828 5832 5836 5840 5844 5848 5852 5855 5857 5860 5862 5863 5864 5864 5865 5865 5866 5866 5866 5866 5866 5865 5865 5864 5863 5863 5861 5859 5857 5856 5855 5853 5851 5850 5849 5848 5847 5847 5845
5783 5788 5792 5796 5800 5805 5810 5814 5817 5820 5824 5828 5832 5835 5839 5843 5847 5850 5853 5855 5857 5858 5859 5860 5860 5860 5860 5860 5860 5860 5859 5859 5858 5857 5857 5855 5853 5852 5850 5848 5846 5844 5843 5842 5841 5840 5840 5839 5838
5780 5784 5788 5793 5798 5803 5808 5813 5813 5816 5820 5823 5827 5831 5834 5838 5842 5845 5847 5850 5852 5853 5854 5854 5854 5854 5854 5855 5855 5854 5854 5853 5851 5850 5849 5847 5846 5844 5842 5840 5839 5837 5836 5834 5833 5832 5832 5831 5830
5777 5781 5786 5790 5795 5800 5804 5810 5809 5812 5815 5819 5822 5825 5829 5832 5836 5839 5842 5844 5846 5847 5848 5849 5849 5849 5849 5849 5848 5848 5847 5846 5845 5844 5842 5840 5838 5836 5835 5833 5832 5830 5829 5828 5826 5825 5823 5823 5821
5774 5779 5784 5788 5793 5798 5801 5806 5806 5808 5811 5814 5817 5820 5823 5826 5829 5832 5835 5837 5840 5841 5842 5843 5843 5843 5842 5842 5842 5840 5839 5838 5837 5836 5834 5832 5830 5829 5827 5826 5824 5823 5821 5820 5819 5817 5816 5814 5812
5772 5778 5784 5788 5792 5796 5796 5800 5802 5804 5807 5810 5812 5815 5818 5820 5823 5825 5828 5831 5833 5835 5836 5836 5836 5836 5836 5835 5835 5833 5832 5831 5829 5828 5826 5824 5822 5821 5819 5818 5817 5815 5813 5811 5810 5808 5806 5804 5802
5771 5776 5784 5790 5792 5793 5793 5795 5799 5801 5803 5806 5808 5811 5813 5815 5817 5819 5822 5824 5826 5827 5828 5829 5829 5829 5829 5828 5827 5826 5825 5823 5821 5819 5818 5816 5814 5812 5810 5809 5807 5806 5803 5801 5799 5798 5796 5793 5791
5769 5773 5779 5783 5787 5790 5789 5792 5795 5797 5800 5802 5805 5807 5809 5811 5813 5815 5816 5818 5819 5820 5821 5821 5821 5821 5821 5821 5820 5819 5817 5816 5814 5812 5809 5807 5805 5803 5801 5799 5797 5795 5793 5791 5788 5786 5784 5782 5779
5767 5771 5776 5781 5786 5787 5787 5789 5791 5794 5796 5798 5801 5803 5805 5806 5808 5810 5811 5812 5813 5814 5814 5814 5814 5813 5813 5813 5812 5810 5809 5807 5805 5802 5800 5798 5796 5794 5791 5789 5787 5785 5782 5780 5777 5775 5772 5769 5766
5766 5770 5773 5778 5782 5786 5785 5787 5787 5789 5791 5793 5796 5798 5800 5801 5803 5804 5805 5806 5806 5806 5807 5806 5806 5805 5805 5804 5803 5801 5799 5797 5795 5793 5791 5788 5786 5783 5781 5778 5776 5773 5771 5768 5765 5762 5759 5756 5752
5764 5767 5771 5776 5777 5780 5782 5783 5782 5784 5786 5788 5790 5792 5793 5795 5796 5797 5798 5798 5798 5798 5798 5798 5797 5796 5795 5794 5793 5791 5789 5787 5785 5783 5780 5778 5775 5772 5770 5767 5764 5761 5758 5755 5752 5749 5746 5742 5738